Hourly Weather Dzierzazna

Today, 15 May, Saturday

Time Temperature Precipitation Wind Pressure Humidity
00:00 +11°C° 0 mm 4 mps 744 mmHg 84%
01:00 +10°C° 0 mm 4 mps 744 mmHg 85%
02:00 +8°C° 0 mm 4 mps 744 mmHg 88%
03:00 +7°C° 0 mm 4 mps 744 mmHg 91%
04:00 +8°C° 0 mm 3 mps 744 mmHg 94%
05:00 +9°C° 0 mm 3 mps 745 mmHg 89%
06:00 +10°C° 0 mm 3 mps 745 mmHg 83%
07:00 +11°C° 0 mm 4 mps 745 mmHg 78%
08:00 +13°C° 0 mm 4 mps 745 mmHg 72%
09:00 +14°C° 0 mm 3 mps 745 mmHg 67%
10:00 +17°C° 0 mm 3 mps 745 mmHg 61%
11:00 +17°C° 0.1 mm 3 mps 745 mmHg 59%
12:00 +18°C° 0.1 mm 3 mps 745 mmHg 56%
13:00 +19°C° 0.1 mm 2 mps 744 mmHg 53%
14:00 +19°C° 0.1 mm 2 mps 744 mmHg 54%
15:00 +20°C° 0.1 mm 1 mps 744 mmHg 55%
16:00 +20°C° 0.1 mm 1 mps 744 mmHg 55%
17:00 +18°C° 0.1 mm 2 mps 744 mmHg 61%
18:00 +16°C° 0.1 mm 2 mps 743 mmHg 68%
19:00 +14°C° 0.1 mm 3 mps 743 mmHg 74%
20:00 +13°C° 0.3 mm 3 mps 743 mmHg 80%
21:00 +12°C° 0.3 mm 3 mps 743 mmHg 86%
22:00 +13°C° 0.3 mm 2 mps 743 mmHg 92%
23:00 +12°C° 0.2 mm 2 mps 743 mmHg 93%

Tomorrow, 16 May, Sunday

Time Temperature Precipitation Wind Pressure Humidity
00:00 +12°C° 0.2 mm 2 mps 743 mmHg 94%
01:00 +12°C° 0.2 mm 1 mps 743 mmHg 95%
02:00 +12°C° 0.3 mm 1 mps 743 mmHg 95%
03:00 +12°C° 0.3 mm 1 mps 743 mmHg 95%
04:00 +11°C° 0.3 mm 1 mps 743 mmHg 95%
05:00 +12°C° 0 mm 2 mps 743 mmHg 92%
06:00 +13°C° 0 mm 2 mps 743 mmHg 89%
07:00 +13°C° 0 mm 3 mps 743 mmHg 86%
08:00 +14°C° 0.1 mm 3 mps 743 mmHg 80%
09:00 +16°C° 0.1 mm 3 mps 743 mmHg 74%
10:00 +17°C° 0.1 mm 3 mps 743 mmHg 69%
11:00 +16°C° 0.3 mm 3 mps 743 mmHg 70%
12:00 +16°C° 0.3 mm 3 mps 743 mmHg 72%
13:00 +15°C° 0.3 mm 4 mps 742 mmHg 73%
14:00 +14°C° 0.8 mm 3 mps 742 mmHg 75%
15:00 +15°C° 0.8 mm 2 mps 742 mmHg 78%
16:00 +14°C° 0.8 mm 2 mps 742 mmHg 80%
17:00 +14°C° 0.1 mm 1 mps 742 mmHg 82%
18:00 +13°C° 0.1 mm 1 mps 742 mmHg 83%
19:00 +13°C° 0.1 mm 1 mps 742 mmHg 85%
20:00 +12°C° 0 mm 2 mps 742 mmHg 87%
21:00 +10°C° 0 mm 2 mps 742 mmHg 89%
22:00 +9°C° 0 mm 2 mps 742 mmHg 91%
23:00 +9°C° 0 mm 2 mps 742 mmHg 92%

Day after tomorrow, 17 May, Monday

Time Temperature Precipitation Wind Pressure Humidity
00:00 +9°C° 0 mm 2 mps 742 mmHg 92%
01:00 +8°C° 0 mm 3 mps 742 mmHg 93%
02:00 +8°C° 0 mm 3 mps 742 mmHg 93%
03:00 +8°C° 0 mm 3 mps 742 mmHg 93%
04:00 +8°C° 0 mm 3 mps 742 mmHg 93%
05:00 +9°C° 0 mm 3 mps 742 mmHg 90%
06:00 +10°C° 0 mm 4 mps 742 mmHg 88%
07:00 +12°C° 0 mm 4 mps 743 mmHg 86%
08:00 +12°C° 0.5 mm 4 mps 743 mmHg 86%
09:00 +12°C° 0.5 mm 3 mps 743 mmHg 87%
10:00 +13°C° 0.5 mm 2 mps 743 mmHg 87%
11:00 +13°C° 0.6 mm 3 mps 743 mmHg 85%
12:00 +13°C° 0.6 mm 3 mps 743 mmHg 82%
13:00 +14°C° 0.6 mm 4 mps 742 mmHg 79%
14:00 +14°C° 0.6 mm 4 mps 742 mmHg 77%
15:00 +15°C° 0.6 mm 4 mps 742 mmHg 74%
16:00 +15°C° 0.6 mm 4 mps 742 mmHg 72%
17:00 +14°C° 0.7 mm 4 mps 742 mmHg 77%
18:00 +13°C° 0.7 mm 4 mps 742 mmHg 83%
19:00 +11°C° 0.7 mm 4 mps 742 mmHg 88%
20:00 +11°C° 0.1 mm 4 mps 743 mmHg 90%
21:00 +10°C° 0.1 mm 4 mps 743 mmHg 93%
22:00 +8°C° 0.1 mm 4 mps 743 mmHg 95%
23:00 +7°C° 0 mm 4 mps 743 mmHg 95%

18 May, Tuesday

Time Temperature Precipitation Wind Pressure Humidity
00:00 +7°C° 0 mm 4 mps 743 mmHg 94%
01:00 +7°C° 0 mm 4 mps 743 mmHg 94%
02:00 +6°C° 0 mm 4 mps 743 mmHg 95%
03:00 +6°C° 0 mm 4 mps 743 mmHg 95%
04:00 +6°C° 0 mm 4 mps 743 mmHg 95%
05:00 +7°C° 0 mm 4 mps 744 mmHg 91%
06:00 +8°C° 0 mm 5 mps 744 mmHg 87%
07:00 +9°C° 0 mm 5 mps 744 mmHg 83%
08:00 +10°C° 0.1 mm 5 mps 744 mmHg 81%
09:00 +10°C° 0.1 mm 6 mps 744 mmHg 80%
10:00 +11°C° 0.1 mm 6 mps 745 mmHg 78%
11:00 +13°C° 0.2 mm 6 mps 745 mmHg 77%
12:00 +13°C° 0.2 mm 6 mps 745 mmHg 75%
13:00 +14°C° 0.2 mm 6 mps 745 mmHg 73%
14:00 +14°C° 0.3 mm 5 mps 745 mmHg 74%
15:00 +14°C° 0.3 mm 5 mps 745 mmHg 74%
16:00 +14°C° 0.3 mm 5 mps 745 mmHg 75%
17:00 +13°C° 0.2 mm 4 mps 745 mmHg 79%
18:00 +12°C° 0.2 mm 4 mps 745 mmHg 84%
19:00 +11°C° 0.2 mm 3 mps 745 mmHg 89%
20:00 +10°C° 0.2 mm 3 mps 746 mmHg 91%
21:00 +9°C° 0.2 mm 3 mps 746 mmHg 93%
22:00 +9°C° 0.2 mm 3 mps 746 mmHg 95%
23:00 +7°C° 0 mm 4 mps 746 mmHg 95%

19 May, Wednesday

Time Temperature Precipitation Wind Pressure Humidity
00:00 +7°C° 0 mm 4 mps 746 mmHg 96%
01:00 +7°C° 0 mm 4 mps 747 mmHg 96%
02:00 +6°C° 0 mm 4 mps 747 mmHg 96%
03:00 +7°C° 0 mm 3 mps 747 mmHg 97%
04:00 +5°C° 0 mm 3 mps 747 mmHg 97%
05:00 +7°C° 0 mm 3 mps 747 mmHg 96%
06:00 +7°C° 0 mm 4 mps 747 mmHg 95%
07:00 +8°C° 0 mm 4 mps 747 mmHg 95%
08:00 +10°C° 0.1 mm 4 mps 748 mmHg 90%
09:00 +10°C° 0.1 mm 5 mps 748 mmHg 85%
10:00 +12°C° 0.1 mm 5 mps 748 mmHg 79%
11:00 +12°C° 0.2 mm 5 mps 748 mmHg 75%
12:00 +13°C° 0.2 mm 5 mps 748 mmHg 71%
13:00 +14°C° 0.2 mm 6 mps 748 mmHg 67%
14:00 +14°C° 0.2 mm 6 mps 748 mmHg 66%
15:00 +14°C° 0.2 mm 5 mps 748 mmHg 65%
16:00 +14°C° 0.2 mm 5 mps 748 mmHg 64%
17:00 +13°C° 0.1 mm 5 mps 748 mmHg 70%
18:00 +12°C° 0.1 mm 4 mps 748 mmHg 75%
19:00 +10°C° 0.1 mm 3 mps 748 mmHg 81%
20:00 +9°C° 0 mm 3 mps 749 mmHg 84%
21:00 +8°C° 0 mm 3 mps 749 mmHg 87%
22:00 +7°C° 0 mm 3 mps 749 mmHg 91%
23:00 +7°C° 0 mm 3 mps 749 mmHg 92%

20 May, Thursday

Time Temperature Precipitation Wind Pressure Humidity
00:00 +7°C° 0 mm 3 mps 749 mmHg 93%
01:00 +5°C° 0 mm 3 mps 749 mmHg 94%
02:00 +5°C° 0 mm 3 mps 749 mmHg 95%
03:00 +5°C° 0 mm 3 mps 750 mmHg 96%
04:00 +5°C° 0 mm 4 mps 750 mmHg 97%
05:00 +6°C° 0 mm 4 mps 750 mmHg 94%
06:00 +6°C° 0 mm 5 mps 750 mmHg 92%
07:00 +7°C° 0 mm 6 mps 751 mmHg 89%
08:00 +8°C° 0 mm 6 mps 751 mmHg 86%
09:00 +8°C° 0 mm 6 mps 751 mmHg 83%
10:00 +9°C° 0 mm 6 mps 751 mmHg 80%
11:00 +10°C° 0.1 mm 6 mps 751 mmHg 75%
12:00 +11°C° 0.1 mm 6 mps 751 mmHg 71%
13:00 +13°C° 0.1 mm 6 mps 751 mmHg 66%
14:00 +13°C° 0.2 mm 6 mps 751 mmHg 67%
15:00 +13°C° 0.2 mm 6 mps 751 mmHg 68%
16:00 +11°C° 0.2 mm 6 mps 751 mmHg 69%
17:00 +10°C° 0.1 mm 5 mps 751 mmHg 74%
18:00 +10°C° 0.1 mm 4 mps 751 mmHg 79%
19:00 +9°C° 0.1 mm 3 mps 751 mmHg 84%
20:00 +8°C° 0 mm 3 mps 751 mmHg 86%
21:00 +7°C° 0 mm 2 mps 752 mmHg 88%
22:00 +6°C° 0 mm 2 mps 752 mmHg 90%
23:00 +6°C° 0 mm 2 mps 751 mmHg 90%
Show more

We Need Your Consent

Meteoprog and our Service Providers may store and access personal data such as cookies, device identifiers or other similar technologies on your device and process such data to personalise content and ads, as well as provide social media features and to analyse the traffic.

  • Store and/or access information on your device

    Cookies, device identifiers or other information can be stored or accessed on your device for the purposes indicated above.

  • Personalised ads and content, ad and content measurement, audience insights, and products development

    Ads and content can be personalised based on a profile. More data can be added to better personalise ads and content. Ad and content performance can be measured. Insights about the audience who saw the ads and content can be derived. Such data can be used to develop or improve user’s experience, systems and software.

By clicking ‘I Agree’ you will allow the use of indicated cookies, device identifiers, web beacons or other similar technologies. Your settings can be changed in the browser on your device.

For certain purposes, legitimate interests may be relied on, rather than consent. You can read more about this in our Privacy and Cookie Policy.